Weather in Seýdi

Turkmenistan     39°29′04″N   62°54′59″E
В апреле 2022 года жителям России запретили посещать сайт meteo.paraplan.net по решению Генеральной прокуратуры. Аудитория сайта уменьшилась в 10 раз. Владельцы сайта не видят смысла в поддержке погодного сервера в таких условиях. Сайт будет закрыт в октябре.
temp.,
°C
wind,
m/s
gust,
m/s
humid.,
%
clouds,
%
prec.,
mm/h
press.,
hPa
HPBL,
m
5 october, wed
wed523:00+17ne44160 0.0 102233
02:00+15ne58160 0.0 102279
05:00+12nne59180 0.0 102298
08:00+12nne612230 0.0 1024257
11:00+21ne78120 0.0 1023644
14:00+24nne8880 0.0 10221081
17:00+23nne91090 0.0 10211240
20:00+17nne610160 0.0 1023106
6 october, thu
thu623:00+15nne610200 0.0 1022117
02:00+13nne510250 0.0 1021108
05:00+12nne611270 0.0 1022135
08:00+12nne613250 0.0 1022313
11:00+20ne810160 0.0 1021689
14:00+24nne77140 0.0 10191149
17:00+24nne78130 0.0 10181218
20:00+18nne44200 0.0 101921
7 october, fri
fri723:00+16n44220 0.0 101914
02:00+14nne33230 0.0 101810
05:00+13nne33230 0.0 101910
08:00+15nne22234 0.0 102018
11:00+22e011215 0.0 1020453
14:00+26wsw22824 0.0 10181241
17:00+26wnw2180 0.0 10181316
20:00+20nnw33125 0.0 101911
8 october, sat
sat823:00+17nnw441850 0.0 102018
02:00+16nnw441893 0.0 102014
05:00+15n331879 0.0 102011
08:00+17nnw2216100 0.0 102211
11:00+23nw331111 0.0 1022626
14:00+26nw4460 0.0 10201529
17:00+26nnw4460 0.0 10191565
20:00+20n4495 0.0 102117
9 october, sun
sun923:00+18n44111 0.0 102130
02:00+16nne55170 0.0 102137
05:00+15nne55340 0.0 102145
08:00+15nne510310 0.0 1022211
11:00+22ne78190 0.0 1022708
14:00+25nne88131 0.0 10201311
17:00+25nne88140 0.0 10201448
20:00+19nne713210 0.0 1021178